| time (UTC) | temp C | wind direction | speed KPH | gust KPH | rain 1hr cm | rain 24hr cm | rain mn cm | humidity % | barometer mb |
| 20260506121908 | 20 | 270 | 12.9 | 0.0 | 0.00 | 0.00 | 0.00 | 37 | 1002.4 |
| 20260506121708 | 20 | 270 | 8.0 | 0.0 | 0.00 | 0.00 | 0.00 | 38 | 1002.4 |
| 20260506121508 | 20 | 248 | 6.4 | 0.0 | 0.00 | 0.00 | 0.00 | 38 | 1002.4 |
| 20260506121323 | 20 | 248 | 0.0 | 0.0 | 0.00 | 0.00 | 0.00 | 38 | 1002.5 |
| 20260506121108 | 20 | 315 | 0.0 | 0.0 | 0.00 | 0.00 | 0.00 | 38 | 1002.5 |
| 20260506120908 | 20 | 202 | 9.7 | 0.0 | 0.00 | 0.00 | 0.00 | 38 | 1002.5 |
| 20260506120705 | 20 | 270 | 0.0 | 0.0 | 0.00 | 0.00 | 0.00 | 39 | 1002.5 |
| 20260506120511 | 20 | 270 | 0.0 | 0.0 | 0.00 | 0.00 | 0.00 | 39 | 1002.5 |
| 20260506120311 | 20 | 270 | 0.0 | 0.0 | 0.00 | 0.00 | 0.00 | 39 | 1002.5 |
| 20260506120008 | 19 | 248 | 6.4 | 0.0 | 0.00 | 0.00 | 0.00 | 39 | 1002.6 |
| 20260506115809 | 19 | 248 | 6.4 | 0.0 | 0.00 | 0.00 | 0.00 | 39 | 1002.6 |
| 20260506115613 | 19 | 248 | 3.2 | 0.0 | 0.00 | 0.00 | 0.00 | 39 | 1002.6 |
| 20260506115409 | 19 | 270 | 0.0 | 0.0 | 0.00 | 0.00 | 0.00 | 39 | 1002.6 |
| 20260506115207 | 19 | 248 | 8.0 | 0.0 | 0.00 | 0.00 | 0.00 | 39 | 1002.7 |
| 20260506115008 | 19 | 315 | 9.7 | 0.0 | 0.00 | 0.00 | 0.00 | 39 | 1002.9 |
| 20260506114808 | 19 | 315 | 9.7 | 0.0 | 0.00 | 0.00 | 0.00 | 39 | 1002.9 |
| 20260506114609 | 19 | 292 | 0.0 | 0.0 | 0.00 | 0.00 | 0.00 | 39 | 1003.0 |
| 20260506114409 | 19 | 292 | 8.0 | 0.0 | 0.00 | 0.00 | 0.00 | 38 | 1003.2 |
| 20260506114207 | 20 | 315 | 16.1 | 0.0 | 0.00 | 0.00 | 0.00 | 37 | 1003.2 |
| 20260506114006 | 20 | 292 | 1.6 | 0.0 | 0.00 | 0.00 | 0.00 | 37 | 1003.2 |
| 20260506113809 | 20 | 270 | 9.7 | 0.0 | 0.00 | 0.00 | 0.00 | 36 | 1003.2 |
| 20260506113605 | 20 | 270 | 0.0 | 0.0 | 0.00 | 0.00 | 0.00 | 36 | 1003.2 |
| 20260506113405 | 20 | 248 | 3.2 | 0.0 | 0.00 | 0.00 | 0.00 | 36 | 1003.2 |
| 20260506113311 | 20 | 248 | 3.2 | 0.0 | 0.00 | 0.00 | 0.00 | 36 | 1003.2 |
| 20260506113107 | 20 | 248 | 3.2 | 0.0 | 0.00 | 0.00 | 0.00 | 36 | 1003.2 |
| 20260506112909 | 20 | 248 | 1.6 | 0.0 | 0.00 | 0.00 | 0.00 | 35 | 1003.2 |
| 20260506112710 | 21 | 292 | 22.5 | 0.0 | 0.00 | 0.00 | 0.00 | 35 | 1003.2 |
| 20260506112508 | 21 | 270 | 0.0 | 0.0 | 0.00 | 0.00 | 0.00 | 35 | 1003.2 |
| 20260506112306 | 21 | 248 | 6.4 | 0.0 | 0.00 | 0.00 | 0.00 | 34 | 1003.0 |
| 20260506112107 | 21 | 270 | 0.0 | 0.0 | 0.00 | 0.00 | 0.00 | 34 | 1003.1 |
| 20260506111907 | 22 | 248 | 0.0 | 0.0 | 0.00 | 0.00 | 0.00 | 34 | 1003.1 |
| 20260506111705 | 22 | 248 | 0.0 | 0.0 | 0.00 | 0.00 | 0.00 | 34 | 1003.1 |
| 20260506111511 | 22 | 248 | 0.0 | 0.0 | 0.00 | 0.00 | 0.00 | 34 | 1003.2 |
| 20260506111309 | 22 | 248 | 0.0 | 0.0 | 0.00 | 0.00 | 0.00 | 34 | 1003.3 |
| 20260506111110 | 22 | 248 | 4.8 | 0.0 | 0.00 | 0.00 | 0.00 | 35 | 1003.2 |
| 20260506110913 | 22 | 248 | 0.0 | 0.0 | 0.00 | 0.00 | 0.00 | 35 | 1003.2 |
| 20260506110716 | 22 | 0 | 0.0 | 0.0 | 0.00 | 0.00 | 0.00 | 34 | 1003.2 |
| 20260506110508 | 22 | 0 | 0.0 | 0.0 | 0.00 | 0.00 | 0.00 | 34 | 1003.2 |
| 20260506110219 | 22 | 0 | 0.0 | 0.0 | 0.00 | 0.00 | 0.00 | 34 | 1003.2 |
| 20260506105912 | 22 | 248 | 0.0 | 0.0 | 0.00 | 0.00 | 0.00 | 34 | 1003.3 |
| 20260506105713 | 22 | 45 | 0.0 | 0.0 | 0.00 | 0.00 | 0.00 | 35 | 1003.3 |
| 20260506105507 | 22 | 0 | 0.0 | 0.0 | 0.00 | 0.00 | 0.00 | 35 | 1003.4 |
| 20260506105308 | 21 | 45 | 0.0 | 0.0 | 0.00 | 0.00 | 0.00 | 35 | 1003.3 |
| 20260506105119 | 21 | 45 | 0.0 | 0.0 | 0.00 | 0.00 | 0.00 | 36 | 1003.3 |
| 20260506104912 | 21 | 248 | 0.0 | 0.0 | 0.00 | 0.00 | 0.00 | 36 | 1003.4 |
| 20260506104710 | 21 | 248 | 0.0 | 0.0 | 0.00 | 0.00 | 0.00 | 36 | 1003.3 |
| 20260506104512 | 21 | 248 | 0.0 | 0.0 | 0.00 | 0.00 | 0.00 | 36 | 1003.3 |
| 20260506104311 | 21 | 248 | 0.0 | 0.0 | 0.00 | 0.00 | 0.00 | 36 | 1003.4 |
| 20260506104109 | 21 | 292 | 0.0 | 0.0 | 0.00 | 0.00 | 0.00 | 36 | 1003.4 |
| 20260506103917 | 21 | 68 | 0.0 | 0.0 | 0.00 | 0.00 | 0.00 | 36 | 1003.5 |
| 20260506103711 | 21 | 68 | 8.0 | 0.0 | 0.00 | 0.00 | 0.00 | 36 | 1003.5 |
| 20260506103512 | 21 | 0 | 8.0 | 0.0 | 0.00 | 0.00 | 0.00 | 36 | 1003.7 |
| 20260506103312 | 21 | 0 | 8.0 | 0.0 | 0.00 | 0.00 | 0.00 | 36 | 1003.7 |
| 20260506103111 | 21 | 270 | 0.0 | 0.0 | 0.00 | 0.00 | 0.00 | 37 | 1003.8 |
| 20260506102908 | 21 | 0 | 0.0 | 0.0 | 0.00 | 0.00 | 0.00 | 37 | 1003.8 |
| 20260506102711 | 20 | 0 | 0.0 | 0.0 | 0.00 | 0.00 | 0.00 | 37 | 1003.9 |
| 20260506102510 | 20 | 112 | 0.0 | 0.0 | 0.00 | 0.00 | 0.00 | 37 | 1003.9 |
| 20260506102315 | 20 | 338 | 8.0 | 0.0 | 0.00 | 0.00 | 0.00 | 37 | 1003.9 |
| 20260506102108 | 20 | 0 | 6.4 | 0.0 | 0.00 | 0.00 | 0.00 | 37 | 1003.9 |
| 20260506101913 | 20 | 0 | 6.4 | 0.0 | 0.00 | 0.00 | 0.00 | 38 | 1003.9 |
| 20260506101711 | -1 | 338 | 0.0 | 0.0 | 0.00 | 0.00 | 0.00 | 38 | 1004.0 |
| 20260506101509 | 20 | 68 | 0.0 | 0.0 | 0.00 | 0.00 | 0.00 | 40 | 1004.0 |
| 20260506101306 | 20 | 68 | 0.0 | 0.0 | 0.00 | 0.00 | 0.00 | 40 | 1004.0 |
| 20260506101111 | 20 | 68 | 0.0 | 0.0 | 0.00 | 0.00 | 0.00 | 40 | 1004.0 |
| 20260506100911 | 20 | 68 | 0.0 | 0.0 | 0.00 | 0.00 | 0.00 | 40 | 1004.0 |
| 20260506100611 | 20 | 270 | 0.0 | 0.0 | 0.00 | 0.00 | 0.00 | 41 | 1004.1 |
| 20260506100411 | 18 | 270 | 0.0 | 0.0 | 0.00 | 0.00 | 0.00 | 41 | 1004.2 |
| 20260506100208 | 18 | 270 | 0.0 | 0.0 | 0.00 | 0.00 | 0.00 | 41 | 1004.3 |
| 20260506100007 | 18 | 270 | 0.0 | 0.0 | 0.00 | 0.00 | 0.00 | 41 | 1004.3 |
| 20260506095812 | 18 | 270 | 0.0 | 0.0 | 0.00 | 0.00 | 0.00 | 41 | 1004.4 |
| 20260506095608 | 18 | 270 | 0.0 | 0.0 | 0.00 | 0.00 | 0.00 | 41 | 1004.4 |
| 20260506095508 | 18 | 270 | 0.0 | 0.0 | 0.00 | 0.00 | 0.00 | 41 | 1004.4 |
| 20260506095312 | 18 | 270 | 0.0 | 0.0 | 0.00 | 0.00 | 0.00 | 41 | 1004.5 |
| 20260506095109 | 18 | 248 | 0.0 | 0.0 | 0.00 | 0.00 | 0.00 | 43 | 1004.6 |
| 20260506094910 | 18 | 225 | 0.0 | 0.0 | 0.00 | 0.00 | 0.00 | 42 | 1004.6 |
| 20260506094714 | 18 | 225 | 0.0 | 0.0 | 0.00 | 0.00 | 0.00 | 44 | 1004.5 |
| 20260506094508 | 18 | 225 | 0.0 | 0.0 | 0.00 | 0.00 | 0.00 | 44 | 1004.6 |
| 20260506094313 | 18 | 225 | 0.0 | 0.0 | 0.00 | 0.00 | 0.00 | 44 | 1004.6 |
| 20260506094010 | 18 | 225 | 0.0 | 0.0 | 0.00 | 0.00 | 0.00 | 44 | 1004.7 |
| 20260506093810 | 18 | 225 | 0.0 | 0.0 | 0.00 | 0.00 | 0.00 | 44 | 1004.8 |
| 20260506093608 | 18 | 315 | 12.9 | 0.0 | 0.00 | 0.00 | 0.00 | 44 | 1004.7 |
| 20260506093409 | 18 | 270 | 0.0 | 0.0 | 0.00 | 0.00 | 0.00 | 44 | 1004.9 |
| 20260506093209 | 18 | 315 | 6.4 | 0.0 | 0.00 | 0.00 | 0.00 | 44 | 1004.9 |
| 20260506093009 | 17 | 135 | 0.0 | 0.0 | 0.00 | 0.00 | 0.00 | 45 | 1005.0 |
| 20260506092809 | 17 | 135 | 0.0 | 0.0 | 0.00 | 0.00 | 0.00 | 47 | 1005.0 |
| 20260506092511 | 17 | 135 | 0.0 | 0.0 | 0.00 | 0.00 | 0.00 | 47 | 1005.2 |
| 20260506092312 | 17 | 135 | 0.0 | 0.0 | 0.00 | 0.00 | 0.00 | 46 | 1005.1 |
| 20260506092108 | 17 | 248 | 4.8 | 0.0 | 0.00 | 0.00 | 0.00 | 46 | 1005.1 |
| 20260506091911 | 16 | 248 | 4.8 | 0.0 | 0.00 | 0.00 | 0.00 | 47 | 1005.1 |
| 20260506091709 | 16 | 338 | 3.2 | 0.0 | 0.00 | 0.00 | 0.00 | 47 | 1005.1 |
| 20260506091514 | 16 | 135 | 0.0 | 0.0 | 0.00 | 0.00 | 0.00 | 47 | 1005.2 |
| 20260506091211 | 16 | 90 | 6.4 | 0.0 | 0.00 | 0.00 | 0.00 | 48 | 1005.1 |
| 20260506091010 | 16 | 22 | 14.5 | 0.0 | 0.00 | 0.00 | 0.00 | 48 | 1005.4 |
| 20260506090809 | 16 | 45 | 12.9 | 0.0 | 0.00 | 0.00 | 0.00 | 49 | 1005.1 |
| 20260506090610 | 16 | 0 | 3.2 | 0.0 | 0.00 | 0.00 | 0.00 | 49 | 1005.1 |
| 20260506090409 | 16 | 292 | 0.0 | 0.0 | 0.00 | 0.00 | 0.00 | 49 | 1005.0 |
| 20260506090211 | 16 | 292 | 0.0 | 0.0 | 0.00 | 0.00 | 0.00 | 52 | 1004.8 |
| 20260506090012 | -6 | 270 | 0.0 | 0.0 | 0.00 | 0.00 | 0.00 | 51 | 1004.7 |
| 20260506085809 | -6 | 292 | 0.0 | 0.0 | 0.00 | 0.00 | 0.00 | 50 | 1004.8 |
| 20260506085607 | -6 | 292 | 0.0 | 0.0 | 0.00 | 0.00 | 0.00 | 50 | 1004.7 |
| 20260506085410 | 16 | 292 | 0.0 | 0.0 | 0.00 | 0.00 | 0.00 | 50 | 1004.7 |
| 20260506085208 | 17 | 135 | 0.0 | 0.0 | 0.00 | 0.00 | 0.00 | 50 | 1004.5 |
| 20260506085007 | 17 | 90 | 0.0 | 0.0 | 0.00 | 0.00 | 0.00 | 50 | 1004.6 |
| 20260506084808 | 17 | 180 | 0.0 | 0.0 | 0.00 | 0.00 | 0.00 | 50 | 1004.6 |
| 20260506084608 | 17 | 180 | 0.0 | 0.0 | 0.00 | 0.00 | 0.00 | 50 | 1004.5 |
| 20260506084510 | 17 | 180 | 0.0 | 0.0 | 0.00 | 0.00 | 0.00 | 50 | 1004.3 |
| 20260506084307 | 17 | 135 | 0.0 | 0.0 | 0.00 | 0.00 | 0.00 | 49 | 1004.3 |
| 20260506084110 | 17 | 135 | 0.0 | 0.0 | 0.00 | 0.00 | 0.00 | 49 | 1004.3 |
| 20260506083911 | 17 | 135 | 0.0 | 0.0 | 0.00 | 0.00 | 0.00 | 49 | 1004.3 |
| 20260506083708 | 17 | 112 | 1.6 | 0.0 | 0.00 | 0.00 | 0.00 | 49 | 1004.3 |
| 20260506083512 | 18 | 68 | 0.0 | 0.0 | 0.00 | 0.00 | 0.00 | 48 | 1004.1 |
| 20260506083308 | 18 | 135 | 0.0 | 0.0 | 0.00 | 0.00 | 0.00 | 48 | 1004.1 |
| 20260506083210 | 18 | 90 | 4.8 | 0.0 | 0.00 | 0.00 | 0.00 | 48 | 1004.0 |
| 20260506083008 | 18 | 112 | 3.2 | 0.0 | 0.00 | 0.00 | 0.00 | 47 | 1004.0 |
| 20260506082814 | 18 | 112 | 3.2 | 0.0 | 0.00 | 0.00 | 0.00 | 47 | 1004.0 |
| 20260506082614 | 18 | 135 | 0.0 | 0.0 | 0.00 | 0.00 | 0.00 | 47 | 1004.0 |
| 20260506082408 | 18 | 135 | 0.0 | 0.0 | 0.00 | 0.00 | 0.00 | 47 | 1004.0 |
| 20260506082208 | 19 | 135 | 4.8 | 0.0 | 0.00 | 0.00 | 0.00 | 47 | 1004.0 |
| 20260506082013 | 18 | 112 | 4.8 | 0.0 | 0.00 | 0.00 | 0.00 | 47 | 1004.0 |
| 20260506081807 | 18 | 90 | 0.0 | 0.0 | 0.00 | 0.00 | 0.00 | 47 | 1004.0 |
| 20260506081709 | 18 | 90 | 0.0 | 0.0 | 0.00 | 0.00 | 0.00 | 48 | 1004.0 |
| 20260506081413 | 18 | 68 | 0.0 | 0.0 | 0.00 | 0.00 | 0.00 | 48 | 1004.1 |
| 20260506081207 | 18 | 135 | 4.8 | 0.0 | 0.00 | 0.00 | 0.00 | 48 | 1004.2 |
| 20260506081007 | 18 | 135 | 4.8 | 0.0 | 0.00 | 0.00 | 0.00 | 48 | 1004.2 |
| 20260506080808 | 18 | 135 | 0.0 | 0.0 | 0.00 | 0.00 | 0.00 | 47 | 1004.1 |
| 20260506080611 | 18 | 158 | 0.0 | 0.0 | 0.00 | 0.00 | 0.00 | 47 | 1004.1 |
| 20260506080411 | 18 | 158 | 0.0 | 0.0 | 0.00 | 0.00 | 0.00 | 47 | 1004.0 |
| 20260506080211 | 19 | 135 | 1.6 | 0.0 | 0.00 | 0.00 | 0.00 | 48 | 1004.0 |
| 20260506073306 | 18 | 135 | 0.0 | 0.0 | 0.00 | 0.00 | 0.00 | 49 | 1004.6 |
| 20260506073109 | 18 | 135 | 0.0 | 0.0 | 0.00 | 0.00 | 0.00 | 49 | 1004.6 |
| 20260506072909 | 18 | 135 | 0.0 | 0.0 | 0.00 | 0.00 | 0.00 | 49 | 1004.6 |
| 20260506072709 | 18 | 135 | 0.0 | 0.0 | 0.00 | 0.00 | 0.00 | 51 | 1004.7 |
| 20260506072510 | 18 | 135 | 3.2 | 0.0 | 0.00 | 0.00 | 0.00 | 51 | 1004.7 |
| 20260506072307 | 18 | 135 | 3.2 | 0.0 | 0.00 | 0.00 | 0.00 | 52 | 1004.8 |
| 20260506072108 | 17 | 90 | 0.0 | 0.0 | 0.00 | 0.00 | 0.00 | 52 | 1004.8 |
| 20260506071907 | 17 | 90 | 0.0 | 0.0 | 0.00 | 0.00 | 0.00 | 52 | 1004.8 |
| 20260506071708 | 17 | 90 | 0.0 | 0.0 | 0.00 | 0.00 | 0.00 | 53 | 1004.9 |
| 20260506071508 | 16 | 90 | 0.0 | 0.0 | 0.00 | 0.00 | 0.00 | 54 | 1004.8 |
| 20260506071308 | 16 | 90 | 0.0 | 0.0 | 0.00 | 0.00 | 0.00 | 54 | 1004.8 |
| 20260506071111 | 16 | 135 | 0.0 | 0.0 | 0.00 | 0.00 | 0.00 | 57 | 1005.0 |
| 20260506070907 | 16 | 68 | 0.0 | 0.0 | 0.00 | 0.00 | 0.00 | 57 | 1005.1 |
| 20260506070711 | 16 | 90 | 6.4 | 0.0 | 0.00 | 0.00 | 0.00 | 57 | 1005.1 |
| 20260506070405 | 15 | 90 | 6.4 | 0.0 | 0.00 | 0.00 | 0.00 | 60 | 1005.3 |
| 20260506070208 | 15 | 90 | 6.4 | 0.0 | 0.00 | 0.00 | 0.00 | 60 | 1005.3 |
| 20260506062511 | 13 | 90 | 0.0 | 0.0 | 0.00 | 0.00 | 0.00 | 61 | 1005.4 |
| 20260506062307 | 13 | 90 | 0.0 | 0.0 | 0.00 | 0.00 | 0.00 | 61 | 1005.4 |
| 20260506062108 | 13 | 90 | 0.0 | 0.0 | 0.00 | 0.00 | 0.00 | 62 | 1005.3 |
| 20260506061909 | 13 | 90 | 0.0 | 0.0 | 0.00 | 0.00 | 0.00 | 62 | 1005.3 |
| 20260506061708 | 13 | 90 | 0.0 | 0.0 | 0.00 | 0.00 | 0.00 | 62 | 1005.3 |
| 20260506061508 | 13 | 90 | 0.0 | 0.0 | 0.00 | 0.00 | 0.00 | 62 | 1005.3 |
| 20260506061311 | 13 | 90 | 0.0 | 0.0 | 0.00 | 0.00 | 0.00 | 62 | 1005.3 |
| 20260506061108 | 13 | 90 | 0.0 | 0.0 | 0.00 | 0.00 | 0.00 | 63 | 1005.3 |
| 20260506061008 | 13 | 90 | 0.0 | 0.0 | 0.00 | 0.00 | 0.00 | 63 | 1005.4 |
| 20260506060811 | 13 | 90 | 0.0 | 0.0 | 0.00 | 0.00 | 0.00 | 64 | 1005.4 |
| 20260506060610 | 13 | 90 | 0.0 | 0.0 | 0.00 | 0.00 | 0.00 | 65 | 1005.4 |
| 20260506060411 | 13 | 90 | 0.0 | 0.0 | 0.00 | 0.00 | 0.00 | 69 | 1005.4 |
| 20260506060210 | 12 | 90 | 0.0 | 0.0 | 0.00 | 0.00 | 0.00 | 69 | 1005.5 |
| 20260506051408 | 8 | 90 | 0.0 | 0.0 | 0.00 | 0.00 | 0.00 | 77 | 1006.0 |
| 20260506051212 | 8 | 90 | 0.0 | 0.0 | 0.00 | 0.00 | 0.00 | 77 | 1006.1 |
| 20260506051011 | 8 | 90 | 0.0 | 0.0 | 0.00 | 0.00 | 0.00 | 77 | 1006.0 |
| 20260506050806 | 8 | 90 | 0.0 | 0.0 | 0.00 | 0.00 | 0.00 | 77 | 1006.1 |
| 20260506050609 | 8 | 90 | 0.0 | 0.0 | 0.00 | 0.00 | 0.00 | 77 | 1006.3 |
| 20260506050409 | 8 | 90 | 0.0 | 0.0 | 0.00 | 0.00 | 0.00 | 77 | 1006.2 |
| 20260506050206 | 8 | 90 | 0.0 | 0.0 | 0.00 | 0.00 | 0.00 | 77 | 1006.2 |
| 20260506045025 | 8 | 90 | 0.0 | 0.0 | 0.00 | 0.00 | 0.00 | 76 | 1006.3 |
| 20260506044812 | 8 | 90 | 0.0 | 0.0 | 0.00 | 0.00 | 0.00 | 76 | 1006.4 |
| 20260506044745 | 8 | 90 | 0.0 | 0.0 | 0.00 | 0.00 | 0.00 | 76 | 1006.4 |
| 20260506044308 | 8 | 90 | 0.0 | 0.0 | 0.00 | 0.00 | 0.00 | 76 | 1006.3 |
| 20260506044111 | 8 | 90 | 0.0 | 0.0 | 0.00 | 0.00 | 0.00 | 76 | 1006.4 |
| 20260506043907 | 8 | 90 | 0.0 | 0.0 | 0.00 | 0.00 | 0.00 | 76 | 1006.3 |
| 20260506043709 | 8 | 90 | 0.0 | 0.0 | 0.00 | 0.00 | 0.00 | 76 | 1006.4 |
| 20260506043511 | 8 | 90 | 0.0 | 0.0 | 0.00 | 0.00 | 0.00 | 76 | 1006.4 |
| 20260506043312 | 8 | 90 | 0.0 | 0.0 | 0.00 | 0.00 | 0.00 | 76 | 1006.4 |
| 20260506043210 | 8 | 90 | 0.0 | 0.0 | 0.00 | 0.00 | 0.00 | 76 | 1006.4 |
| 20260506043011 | 8 | 90 | 0.0 | 0.0 | 0.00 | 0.00 | 0.00 | 76 | 1006.4 |
| 20260506042807 | 8 | 90 | 0.0 | 0.0 | 0.00 | 0.00 | 0.00 | 76 | 1006.4 |
| 20260506042613 | 8 | 90 | 0.0 | 0.0 | 0.00 | 0.00 | 0.00 | 76 | 1006.4 |
| 20260506042411 | 8 | 90 | 0.0 | 0.0 | 0.00 | 0.00 | 0.00 | 77 | 1006.5 |
| 20260506042213 | 8 | 90 | 0.0 | 0.0 | 0.00 | 0.00 | 0.00 | 77 | 1006.6 |
| 20260506042007 | 8 | 90 | 0.0 | 0.0 | 0.00 | 0.00 | 0.00 | 77 | 1006.5 |
| 20260506041910 | 8 | 90 | 0.0 | 0.0 | 0.00 | 0.00 | 0.00 | 77 | 1006.4 |
| 20260506041712 | 8 | 90 | 0.0 | 0.0 | 0.00 | 0.00 | 0.00 | 77 | 1006.5 |
| 20260506041511 | 8 | 90 | 0.0 | 0.0 | 0.00 | 0.00 | 0.00 | 77 | 1006.6 |
| 20260506041311 | 8 | 90 | 0.0 | 0.0 | 0.00 | 0.00 | 0.00 | 77 | 1006.7 |
| 20260506041108 | 8 | 90 | 0.0 | 0.0 | 0.00 | 0.00 | 0.00 | 77 | 1006.6 |
| 20260506040909 | 8 | 90 | 0.0 | 0.0 | 0.00 | 0.00 | 0.00 | 77 | 1006.6 |
| 20260506040707 | 8 | 90 | 0.0 | 0.0 | 0.00 | 0.00 | 0.00 | 77 | 1006.6 |
| 20260506040512 | 8 | 90 | 0.0 | 0.0 | 0.00 | 0.00 | 0.00 | 77 | 1006.5 |
| 20260505200315 | 14 | 225 | 6.4 | 0.0 | 0.00 | 0.00 | 0.00 | 50 | 1006.4 |
| 20260505200107 | 14 | 225 | 9.7 | 0.0 | 0.00 | 0.00 | 0.00 | 50 | 1006.5 |
| 20260505195911 | 14 | 248 | 9.7 | 0.0 | 0.00 | 0.00 | 0.00 | 52 | 1006.4 |
| 20260505195713 | 14 | 248 | 3.2 | 0.0 | 0.00 | 0.00 | 0.00 | 51 | 1006.4 |
| 20260505195509 | 13 | 248 | 3.2 | 0.0 | 0.00 | 0.00 | 0.00 | 51 | 1006.4 |
| 20260505195313 | 13 | 248 | 6.4 | 0.0 | 0.00 | 0.00 | 0.00 | 52 | 1006.4 |
| 20260505195111 | 14 | 225 | 9.7 | 0.0 | 0.00 | 0.00 | 0.00 | 52 | 1006.4 |
| 20260505194908 | 14 | 248 | 0.0 | 0.0 | 0.00 | 0.00 | 0.00 | 51 | 1006.4 |
| 20260505194708 | 14 | 292 | 0.0 | 0.0 | 0.00 | 0.00 | 0.00 | 51 | 1006.4 |
| 20260505194509 | 15 | 270 | 0.0 | 0.0 | 0.00 | 0.00 | 0.00 | 50 | 1006.3 |
| 20260505194411 | 15 | 270 | 0.0 | 0.0 | 0.00 | 0.00 | 0.00 | 50 | 1006.3 |
| 20260505194210 | 15 | 270 | 0.0 | 0.0 | 0.00 | 0.00 | 0.00 | 49 | 1006.4 |
| 20260505194009 | 15 | 225 | 14.5 | 0.0 | 0.00 | 0.00 | 0.00 | 47 | 1006.3 |
| 20260505193808 | 15 | 270 | 0.0 | 0.0 | 0.00 | 0.00 | 0.00 | 49 | 1006.3 |
| 20260505193613 | 15 | 270 | 0.0 | 0.0 | 0.00 | 0.00 | 0.00 | 48 | 1006.3 |
| 20260505193413 | 15 | 248 | 0.0 | 0.0 | 0.00 | 0.00 | 0.00 | 47 | 1006.3 |
| 20260505193210 | 15 | 248 | 9.7 | 0.0 | 0.00 | 0.00 | 0.00 | 47 | 1006.2 |
| 20260505193012 | 15 | 248 | 8.0 | 0.0 | 0.00 | 0.00 | 0.00 | 48 | 1006.2 |
| 20260505192810 | 15 | 248 | 6.4 | 0.0 | 0.00 | 0.00 | 0.00 | 48 | 1006.2 |
| 20260505192610 | 15 | 248 | 6.4 | 0.0 | 0.00 | 0.00 | 0.00 | 48 | 1006.1 |
| 20260505192414 | 15 | 248 | 3.2 | 0.0 | 0.00 | 0.00 | 0.00 | 48 | 1006.0 |
| 20260505192210 | 15 | 225 | 17.7 | 0.0 | 0.00 | 0.00 | 0.00 | 49 | 1005.9 |
| 20260505192012 | 15 | 292 | 9.7 | 0.0 | 0.00 | 0.00 | 0.00 | 49 | 1006.0 |
| 20260505191813 | 15 | 225 | 11.3 | 0.0 | 0.00 | 0.00 | 0.00 | 49 | 1005.8 |
| 20260505191719 | 15 | 248 | 4.8 | 0.0 | 0.00 | 0.00 | 0.00 | 49 | 1005.8 |
| 20260505191414 | 15 | 248 | 12.9 | 0.0 | 0.00 | 0.00 | 0.00 | 50 | 1005.7 |
| 20260505191211 | 15 | 270 | 3.2 | 0.0 | 0.00 | 0.00 | 0.00 | 49 | 1005.8 |
| 20260505191010 | 15 | 248 | 8.0 | 0.0 | 0.00 | 0.00 | 0.00 | 49 | 1005.9 |
| 20260505190808 | 15 | 248 | 4.8 | 0.0 | 0.00 | 0.00 | 0.00 | 48 | 1005.8 |
| 20260505190608 | 15 | 315 | 6.4 | 0.0 | 0.00 | 0.00 | 0.00 | 48 | 1005.8 |
| 20260505190412 | 15 | 248 | 4.8 | 0.0 | 0.00 | 0.00 | 0.00 | 49 | 1005.8 |
| 20260505190107 | 15 | 270 | 0.0 | 0.0 | 0.00 | 0.00 | 0.00 | 49 | 1005.8 |
| 20260505185927 | 15 | 248 | 6.4 | 0.0 | 0.00 | 0.00 | 0.00 | 49 | 1005.7 |
| 20260505185612 | 15 | 248 | 6.4 | 0.0 | 0.00 | 0.00 | 0.00 | 49 | 1005.7 |
| 20260505185409 | 15 | 225 | 12.9 | 0.0 | 0.00 | 0.00 | 0.00 | 50 | 1005.7 |
| 20260505185212 | 15 | 270 | 0.0 | 0.0 | 0.00 | 0.00 | 0.00 | 50 | 1005.7 |
| 20260505185010 | 15 | 248 | 4.8 | 0.0 | 0.00 | 0.00 | 0.00 | 50 | 1005.7 |
| 20260505184912 | 14 | 270 | 9.7 | 0.0 | 0.00 | 0.00 | 0.00 | 51 | 1005.6 |
| 20260505184712 | 14 | 248 | 6.4 | 0.0 | 0.00 | 0.00 | 0.00 | 52 | 1005.5 |
| 20260505184407 | 13 | 248 | 8.0 | 0.0 | 0.00 | 0.00 | 0.00 | 52 | 1005.5 |
| 20260505184207 | 13 | 202 | 6.4 | 0.0 | 0.00 | 0.00 | 0.00 | 55 | 1005.5 |
| 20260505184010 | 13 | 270 | 11.3 | 0.0 | 0.00 | 0.00 | 0.00 | 55 | 1005.4 |
| 20260505183812 | 13 | 270 | 3.2 | 0.0 | 0.00 | 0.00 | 0.00 | 55 | 1005.4 |
| 20260505183611 | 13 | 248 | 6.4 | 0.0 | 0.00 | 0.00 | 0.00 | 55 | 1005.5 |
| 20260505183408 | 13 | 248 | 6.4 | 0.0 | 0.00 | 0.00 | 0.00 | 54 | 1005.4 |
| 20260505183211 | 13 | 270 | 0.0 | 0.0 | 0.00 | 0.00 | 0.00 | 55 | 1005.5 |
| 20260505182910 | 13 | 248 | 8.0 | 0.0 | 0.00 | 0.00 | 0.00 | 55 | 1005.6 |
| 20260505182709 | 14 | 248 | 6.4 | 0.0 | 0.00 | 0.00 | 0.00 | 54 | 1005.5 |
| 20260505182510 | 14 | 270 | 0.0 | 0.0 | 0.00 | 0.00 | 0.00 | 54 | 1005.5 |
| 20260505182310 | 14 | 248 | 4.8 | 0.0 | 0.00 | 0.00 | 0.00 | 54 | 1005.6 |
| 20260505182111 | 14 | 292 | 6.4 | 0.0 | 0.00 | 0.00 | 0.00 | 54 | 1005.5 |
| 20260505181910 | 14 | 248 | 3.2 | 0.0 | 0.00 | 0.00 | 0.00 | 53 | 1005.5 |
| 20260505181713 | 15 | 270 | 0.0 | 0.0 | 0.00 | 0.00 | 0.00 | 53 | 1005.5 |
| 20260505181508 | 15 | 270 | 0.0 | 0.0 | 0.00 | 0.00 | 0.00 | 52 | 1005.6 |
| 20260505181309 | 15 | 338 | 3.2 | 0.0 | 0.00 | 0.00 | 0.00 | 52 | 1005.6 |
| 20260505181112 | 15 | 338 | 3.2 | 0.0 | 0.00 | 0.00 | 0.00 | 52 | 1005.5 |
| 20260505180908 | 14 | 248 | 6.4 | 0.0 | 0.00 | 0.00 | 0.00 | 52 | 1005.5 |
| 20260505180710 | 15 | 248 | 8.0 | 0.0 | 0.00 | 0.00 | 0.00 | 54 | 1005.5 |
| 20260505180608 | 15 | 248 | 6.4 | 0.0 | 0.00 | 0.00 | 0.00 | 54 | 1005.4 |
| 20260505180415 | 15 | 292 | 0.0 | 0.0 | 0.00 | 0.00 | 0.00 | 53 | 1005.5 |
| 20260505180208 | 15 | 248 | 3.2 | 0.0 | 0.00 | 0.00 | 0.00 | 53 | 1005.4 |
| 20260505175927 | 14 | 248 | 9.7 | 0.0 | 0.00 | 0.00 | 0.00 | 54 | 1005.5 |
| 20260505175610 | 14 | 248 | 9.7 | 0.0 | 0.00 | 0.00 | 0.00 | 54 | 1005.4 |
| 20260505175416 | 14 | 270 | 3.2 | 0.0 | 0.00 | 0.00 | 0.00 | 54 | 1005.4 |
| 20260505175316 | 15 | 248 | 3.2 | 0.0 | 0.00 | 0.00 | 0.00 | 54 | 1005.3 |
| 20260505175118 | 15 | 270 | 0.0 | 0.0 | 0.00 | 0.00 | 0.00 | 54 | 1005.4 |
| 20260505174911 | 15 | 270 | 0.0 | 0.0 | 0.00 | 0.00 | 0.00 | 54 | 1005.4 |
| 20260505174713 | 15 | 270 | 0.0 | 0.0 | 0.00 | 0.00 | 0.00 | 54 | 1005.4 |
| 20260505174508 | 15 | 270 | 0.0 | 0.0 | 0.00 | 0.00 | 0.00 | 54 | 1005.3 |
| 20260505174310 | 15 | 248 | 0.0 | 0.0 | 0.00 | 0.00 | 0.00 | 54 | 1005.5 |
| 20260505174110 | 15 | 248 | 0.0 | 0.0 | 0.00 | 0.00 | 0.00 | 54 | 1005.4 |
| 20260505173811 | 14 | 248 | 11.3 | 0.0 | 0.00 | 0.00 | 0.00 | 55 | 1005.4 |
| 20260505173607 | 14 | 248 | 1.6 | 0.0 | 0.00 | 0.00 | 0.00 | 55 | 1005.4 |
| 20260505173409 | 14 | 248 | 1.6 | 0.0 | 0.00 | 0.00 | 0.00 | 55 | 1005.4 |
| 20260505173208 | 14 | 270 | 1.6 | 0.0 | 0.00 | 0.00 | 0.00 | 56 | 1005.4 |
| 20260505172908 | 14 | 248 | 1.6 | 0.0 | 0.00 | 0.00 | 0.00 | 56 | 1005.3 |
| 20260505172706 | 14 | 248 | 1.6 | 0.0 | 0.00 | 0.00 | 0.00 | 56 | 1005.4 |
| 20260505172508 | 14 | 248 | 1.6 | 0.0 | 0.00 | 0.00 | 0.00 | 56 | 1005.4 |
| 20260505172311 | 15 | 248 | 3.2 | 0.0 | 0.00 | 0.00 | 0.00 | 56 | 1005.4 |
| 20260505172108 | 15 | 248 | 4.8 | 0.0 | 0.00 | 0.00 | 0.00 | 56 | 1005.4 |
| 20260505171908 | 15 | 248 | 1.6 | 0.0 | 0.00 | 0.00 | 0.00 | 54 | 1005.4 |
| 20260505171708 | 15 | 270 | 0.0 | 0.0 | 0.00 | 0.00 | 0.00 | 54 | 1005.4 |
| 20260505171407 | 15 | 248 | 4.8 | 0.0 | 0.00 | 0.00 | 0.00 | 55 | 1005.4 |
| 20260505171210 | 15 | 248 | 3.2 | 0.0 | 0.00 | 0.00 | 0.00 | 53 | 1005.4 |
| 20260505171008 | 15 | 248 | 0.0 | 0.0 | 0.00 | 0.00 | 0.00 | 54 | 1005.3 |
| 20260505170808 | 15 | 248 | 0.0 | 0.0 | 0.00 | 0.00 | 0.00 | 54 | 1005.4 |
| 20260505170611 | 15 | 292 | 0.0 | 0.0 | 0.00 | 0.00 | 0.00 | 54 | 1005.4 |
| 20260505170411 | 15 | 292 | 0.0 | 0.0 | 0.00 | 0.00 | 0.00 | 53 | 1005.4 |
| 20260505170210 | 15 | 270 | 0.0 | 0.0 | 0.00 | 0.00 | 0.00 | 53 | 1005.3 |
| 20260505165928 | 15 | 248 | 0.0 | 0.0 | 0.00 | 0.00 | 0.00 | 52 | 1005.4 |
| 20260505165608 | 15 | 248 | 0.0 | 0.0 | 0.00 | 0.00 | 0.00 | 52 | 1005.4 |
| 20260505165407 | 15 | 270 | 4.8 | 0.0 | 0.00 | 0.00 | 0.00 | 51 | 1005.3 |
| 20260505165213 | 15 | 248 | 0.0 | 0.0 | 0.00 | 0.00 | 0.00 | 51 | 1005.3 |
| 20260505165007 | 15 | 292 | 0.0 | 0.0 | 0.00 | 0.00 | 0.00 | 51 | 1005.4 |
| 20260505164811 | 16 | 270 | 0.0 | 0.0 | 0.00 | 0.00 | 0.00 | 49 | 1005.4 |
| 20260505164610 | 16 | 248 | 0.0 | 0.0 | 0.00 | 0.00 | 0.00 | 48 | 1005.4 |
| 20260505164406 | 16 | 248 | 0.0 | 0.0 | 0.00 | 0.00 | 0.00 | 48 | 1005.4 |
| 20260505164206 | 16 | 292 | 0.0 | 0.0 | 0.00 | 0.00 | 0.00 | 46 | 1005.4 |
| 20260505164006 | 16 | 292 | 0.0 | 0.0 | 0.00 | 0.00 | 0.00 | 46 | 1005.4 |
| 20260505163807 | 17 | 292 | 0.0 | 0.0 | 0.00 | 0.00 | 0.00 | 45 | 1005.4 |
| 20260505163611 | 17 | 248 | 0.0 | 0.0 | 0.00 | 0.00 | 0.00 | 45 | 1005.3 |
| 20260505163411 | 17 | 338 | 0.0 | 0.0 | 0.00 | 0.00 | 0.00 | 42 | 1005.4 |
| 20260505163208 | 17 | 292 | 0.0 | 0.0 | 0.00 | 0.00 | 0.00 | 42 | 1005.4 |
| 20260505163011 | 17 | 248 | 0.0 | 0.0 | 0.00 | 0.00 | 0.00 | 42 | 1005.5 |
| 20260505162805 | 17 | 248 | 0.0 | 0.0 | 0.00 | 0.00 | 0.00 | 42 | 1005.4 |
| 20260505162706 | 17 | 248 | 0.0 | 0.0 | 0.00 | 0.00 | 0.00 | 42 | 1005.4 |
| 20260505162507 | 17 | 248 | 0.0 | 0.0 | 0.00 | 0.00 | 0.00 | 42 | 1005.5 |
| 20260505162311 | 18 | 248 | 3.2 | 0.0 | 0.00 | 0.00 | 0.00 | 41 | 1005.5 |
| 20260505162112 | -5 | 248 | 0.0 | 0.0 | 0.00 | 0.00 | 0.00 | 41 | 1005.4 |
| 20260505161907 | 18 | 248 | 0.0 | 0.0 | 0.00 | 0.00 | 0.00 | 40 | 1005.5 |
| 20260505161708 | 19 | 248 | 0.0 | 0.0 | 0.00 | 0.00 | 0.00 | 37 | 1005.4 |
| 20260505161510 | 19 | 202 | 0.0 | 0.0 | 0.00 | 0.00 | 0.00 | 37 | 1005.3 |
| 20260505161407 | 19 | 202 | 0.0 | 0.0 | 0.00 | 0.00 | 0.00 | 37 | 1005.3 |
| 20260505161207 | 19 | 202 | 0.0 | 0.0 | 0.00 | 0.00 | 0.00 | 36 | 1005.4 |
| 20260505161007 | 20 | 202 | 0.0 | 0.0 | 0.00 | 0.00 | 0.00 | 36 | 1005.5 |
| 20260505160807 | 20 | 0 | 0.0 | 0.0 | 0.00 | 0.00 | 0.00 | 35 | 1005.4 |
| 20260505160610 | 20 | 90 | 0.0 | 0.0 | 0.00 | 0.00 | 0.00 | 35 | 1005.4 |
| 20260505160411 | 20 | 338 | 0.0 | 0.0 | 0.00 | 0.00 | 0.00 | 35 | 1005.5 |
| 20260505160212 | 20 | 338 | 0.0 | 0.0 | 0.00 | 0.00 | 0.00 | 34 | 1005.5 |
| 20260505153208 | 20 | 315 | 8.0 | 0.0 | 0.00 | 0.00 | 0.00 | 36 | 1005.4 |
| 20260505153007 | 20 | 135 | 9.7 | 0.0 | 0.00 | 0.00 | 0.00 | 36 | 1005.4 |
| 20260505152808 | 20 | 135 | 9.7 | 0.0 | 0.00 | 0.00 | 0.00 | 36 | 1005.6 |
| 20260505152607 | 20 | 248 | 0.0 | 0.0 | 0.00 | 0.00 | 0.00 | 37 | 1005.6 |
| 20260505152408 | 20 | 248 | 0.0 | 0.0 | 0.00 | 0.00 | 0.00 | 37 | 1005.5 |
| 20260505152208 | 20 | 158 | 0.0 | 0.0 | 0.00 | 0.00 | 0.00 | 37 | 1005.5 |
| 20260505151908 | 20 | 0 | 0.0 | 0.0 | 0.00 | 0.00 | 0.00 | 37 | 1005.6 |
| 20260505151708 | 20 | 0 | 0.0 | 0.0 | 0.00 | 0.00 | 0.00 | 37 | 1005.5 |
| 20260505151510 | 20 | 112 | 1.6 | 0.0 | 0.00 | 0.00 | 0.00 | 37 | 1005.5 |
| 20260505151308 | 19 | 112 | 1.6 | 0.0 | 0.00 | 0.00 | 0.00 | 37 | 1005.4 |
| 20260505151107 | 19 | 225 | 12.9 | 0.0 | 0.00 | 0.00 | 0.00 | 37 | 1005.4 |
| 20260505150908 | 20 | 135 | 4.8 | 0.0 | 0.00 | 0.00 | 0.00 | 37 | 1005.4 |
| 20260505150707 | 20 | 248 | 4.8 | 0.0 | 0.00 | 0.00 | 0.00 | 37 | 1005.5 |
| 20260505150515 | 20 | 248 | 4.8 | 0.0 | 0.00 | 0.00 | 0.00 | 36 | 1005.5 |
| 20260505150309 | 20 | 202 | 0.0 | 0.0 | 0.00 | 0.00 | 0.00 | 36 | 1005.5 |
| 20260505150111 | 20 | 270 | 0.0 | 0.0 | 0.00 | 0.00 | 0.00 | 36 | 1005.7 |
| 20260505140608 | 21 | 158 | 0.0 | 0.0 | 0.00 | 0.00 | 0.00 | 35 | 1005.5 |
| 20260505140408 | 21 | 292 | 9.7 | 0.0 | 0.00 | 0.00 | 0.00 | 35 | 1005.5 |
| 20260505140210 | 21 | 292 | 9.7 | 0.0 | 0.00 | 0.00 | 0.00 | 35 | 1005.4 |
| 20260505130240 | 20 | 292 | 0.0 | 0.0 | 0.00 | 0.00 | 0.00 | 34 | 1005.5 |
| 20260505125010 | 21 | 292 | 3.2 | 0.0 | 0.00 | 0.00 | 0.00 | 33 | 1005.4 |
| 20260505124812 | 21 | 292 | 3.2 | 0.0 | 0.00 | 0.00 | 0.00 | 33 | 1005.5 |
| 20260505124411 | 21 | 248 | 8.0 | 0.0 | 0.00 | 0.00 | 0.00 | 33 | 1005.5 |
| 20260505124208 | 21 | 248 | 6.4 | 0.0 | 0.00 | 0.00 | 0.00 | 32 | 1005.4 |
| 20260505124009 | 21 | 248 | 4.8 | 0.0 | 0.00 | 0.00 | 0.00 | 32 | 1005.5 |
| 20260505123811 | 22 | 248 | 8.0 | 0.0 | 0.00 | 0.00 | 0.00 | 32 | 1005.4 |
| 20260505123608 | 22 | 270 | 0.0 | 0.0 | 0.00 | 0.00 | 0.00 | 32 | 1005.4 |
| 20260505123421 | 22 | 248 | 0.0 | 0.0 | 0.00 | 0.00 | 0.00 | 32 | 1005.4 |
| 20260505123209 | 22 | 158 | 0.0 | 0.0 | 0.00 | 0.00 | 0.00 | 32 | 1005.5 |
| 20260505123015 | 22 | 315 | 0.0 | 0.0 | 0.00 | 0.00 | 0.00 | 32 | 1005.5 |
| 20260505122807 | 22 | 315 | 0.0 | 0.0 | 0.00 | 0.00 | 0.00 | 32 | 1005.5 |
| 20260505122611 | 22 | 270 | 0.0 | 0.0 | 0.00 | 0.00 | 0.00 | 32 | 1005.5 |
| 20260505122410 | 22 | 112 | 0.0 | 0.0 | 0.00 | 0.00 | 0.00 | 32 | 1005.5 |
| 20260505122208 | 22 | 270 | 0.0 | 0.0 | 0.00 | 0.00 | 0.00 | 31 | 1005.5 |
| 20260505122012 | 22 | 270 | 0.0 | 0.0 | 0.00 | 0.00 | 0.00 | 31 | 1005.4 |